カタログに戻る

FENGYUN 1C DEB

LostPO
NORAD 38787·DEBRIS·🇨🇳 China

打ち上げ May 10, 1999 から Taiyuan Satellite Launch Center

Loading…

次のパス (今後24時間)

TLE

古いSource: Space-Track

元期: Dec 11, 2023, 15:58 UTC

1 38787U 99025EUB 23345.66552429  .00001249  00000-0  11496-2 0  9993
2 38787  98.3506 297.8976 0231994 230.7042 127.3333 13.72959540695142

AllMySatでFENGYUN 1C DEBをリアルタイム追跡

Download on the App Store